Flag for U.S.A. Weather past 2 weeks in Stillwater, Minnesota, U.S.A.

Now
61 °F

Clear.


Feels Like: 61 °F
Forecast: 56 / 78 °F
Wind: 5 mph from Southeast

Location: St. Paul Downtown Holman Field

Current Time: Aug 28, 2015 at 10:42:07 PM

Latest Report: Aug 28, 2015 at 9:53 PM


Visibility: 10 mi

Pressure: 30.04 "Hg

Humidity: 83%

Dew point: 56 °F

Location of StillwaterLocation

Historic Weather in Stillwater — Graph

°F

Stillwater temperature yesterday

Maximum temperature yesterday: 75 °F (at 5:53 PM)
Minimum temperature yesterday: 59 °F (at 1:53 AM)
Average temperature yesterday: 66 °F

Past Weeks' High & Low Weather Summary

 TemperatureHumidityPressure
High93 °F (Aug 14, 2:53 PM)100% (Aug 19, 12:53 AM)30.20 "Hg (Aug 19, 12:53 AM)
Low51 °F (Aug 26, 6:53 AM)38% (Aug 20, 3:53 PM)29.46 "Hg (Aug 19, 4:53 AM)
Average68 °F73%29.92 "Hg
* Reported Aug 13 8:53 PM — Aug 28 8:53 PM, Stillwater, Weather by CustomWeather, © 2015

Note: Actual official high and low records may vary slightly from our data, if they occured in-between our weather recording intervals... More about our weather records

Advertising

Stillwater weather history for previous 24 hours

 ConditionsComfort  
Time TempWeatherWind HumidityBarometerVisibility
8:53 PM
Fri, Aug 28
63 °FSunny.8 mph81%30.03 "Hg10 mi
7:53 PM64 °FSunny.9 mph78%30.01 "Hg10 mi
6:53 PM67 °FPassing clouds.15 mph76%29.99 "Hg10 mi
5:53 PM71 °FSunny.13 mph68%29.98 "Hg10 mi
4:53 PM73 °FBroken clouds.13 mph69%29.99 "Hg10 mi
3:53 PM73 °FPartly sunny.16 mph71%29.99 "Hg10 mi
2:53 PM75 °FPassing clouds.13 mph69%29.98 "Hg10 mi
1:53 PM73 °FSunny.13 mph74%29.99 "Hg10 mi
12:53 PM72 °FPartly sunny.7 mph76%30.00 "Hg10 mi
11:53 AM70 °FSunny.10 mph81%30.00 "Hg10 mi
10:53 AM69 °FSunny.6 mph81%30.00 "Hg10 mi
9:53 AM67 °FSunny.8 mph87%30.01 "Hg10 mi
8:53 AM65 °FSunny.8 mph94%30.02 "Hg9 mi
7:53 AM64 °FFog.6 mph94%30.01 "Hg6 mi
6:53 AM62 °FClear.6 mph96%30.00 "Hg9 mi
5:53 AM62 °FClear.3 mph93%29.99 "Hg8 mi
4:53 AM62 °FPassing clouds.No wind93%29.99 "Hg10 mi
3:53 AM63 °FClear.6 mph90%29.98 "Hg10 mi
2:53 AM63 °FClear.6 mph90%29.99 "Hg10 mi
1:53 AM63 °FClear.5 mph90%30.01 "Hg10 mi
12:53 AM64 °FClear.7 mph87%30.00 "Hg10 mi
11:53 PM
Thu, Aug 27
65 °FClear.5 mph81%30.00 "Hg10 mi
10:53 PM65 °FClear.8 mph85%30.00 "Hg10 mi
Weather by CustomWeather, © 2015

See weather overviewHow to use our weather pages